TURKSAT 3A

Last updated on Mon Dec 15 2025 00:02:53 GMT+0000 (Coordinated Universal Time)

1 33056U 08030B 25348.21076973 .00000164 00000+0 00000+0 0 9994 2 33056 0.0479 79.5808 0002825 175.9428 305.4868 1.00269338 50505
UTC large
Height (km)
Speed (km/s)
/
Latitude / Longitude
Inclination (degrees)
Orbital Period (minutes)
Azimuth
Elevation
Range (km)
Doppler Factor

Next 0 passes for location: London (51.5072 / 0.1276)

Sorry there are no passes over London.